THY1QB LTFM-LTDA

Flight info

Callsign THY1QB
Flight time 1h 26m
Altitude 37000
Route RATVU1E/36 RATVU UT35 UNEPI UT38 KETEK UR55 MUT UW74 ADA
Aircraft B738/M-SDE2E3FGHIRWXY/LB1

Departure

Time 2026-05-01 10:06
Airport İstanbul Airport (LTFM)

Arrival

Time 2026-05-01 11:32
Airport Hatay Airport (LTDA)
Time Latitude Longitude Altitude Speed Heading
2026-05-01 09:30 41.27561 28.74353 330 ft 0 kts 178°
2026-05-01 09:56 41.27568 28.74352 330 ft 4 kts 175°
2026-05-01 09:56 41.27593 28.74344 329 ft 4 kts 143°
2026-05-01 09:56 41.27607 28.74318 331 ft 4 kts 99°
2026-05-01 09:57 41.27608 28.74306 329 ft 0 kts 89°
2026-05-01 09:59 41.27609 28.74313 329 ft 3 kts 89°
2026-05-01 10:00 41.27610 28.74367 331 ft 9 kts 87°
2026-05-01 10:00 41.27613 28.74473 333 ft 14 kts 89°
2026-05-01 10:00 41.27617 28.74626 333 ft 19 kts 88°
2026-05-01 10:00 41.27618 28.74795 333 ft 18 kts 90°
2026-05-01 10:01 41.27619 28.74881 333 ft 3 kts 89°
2026-05-01 10:01 41.27620 28.74928 333 ft 8 kts 88°
2026-05-01 10:01 41.27621 28.75036 333 ft 15 kts 89°
2026-05-01 10:01 41.27624 28.75195 330 ft 18 kts 88°
2026-05-01 10:02 41.27621 28.75327 333 ft 10 kts 110°
2026-05-01 10:02 41.27558 28.75360 333 ft 13 kts 179°
2026-05-01 10:02 41.27435 28.75363 333 ft 22 kts 179°
2026-05-01 10:02 41.27259 28.75369 330 ft 26 kts 179°
2026-05-01 10:03 41.27084 28.75373 330 ft 24 kts 179°
2026-05-01 10:03 41.26921 28.75376 329 ft 23 kts 179°
2026-05-01 10:03 41.26764 28.75380 329 ft 22 kts 180°
2026-05-01 10:03 41.26613 28.75381 332 ft 21 kts 179°
2026-05-01 10:04 41.26481 28.75384 333 ft 13 kts 179°
2026-05-01 10:04 41.26425 28.75450 331 ft 12 kts 94°
2026-05-01 10:04 41.26425 28.75562 331 ft 12 kts 88°
2026-05-01 10:04 41.26450 28.75658 331 ft 12 kts 25°
2026-05-01 10:05 41.26472 28.75662 333 ft 0 kts
2026-05-01 10:05 41.26482 28.75662 333 ft 11 kts
2026-05-01 10:05 41.26808 28.75656 331 ft 81 kts 359°
2026-05-01 10:05 41.27569 28.75636 387 ft 130 kts
2026-05-01 10:06 41.28498 28.75620 980 ft 136 kts
2026-05-01 10:06 41.29432 28.75732 1699 ft 139 kts 25°
2026-05-01 10:06 41.30238 28.76597 2259 ft 166 kts 45°
2026-05-01 10:06 41.31300 28.77500 2534 ft 197 kts 25°
2026-05-01 10:07 41.32599 28.78340 2843 ft 221 kts 29°
2026-05-01 10:07 41.33986 28.79340 3496 ft 232 kts 29°
2026-05-01 10:07 41.35410 28.80386 4450 ft 235 kts 29°
2026-05-01 10:07 41.36736 28.81667 5366 ft 240 kts 47°
2026-05-01 10:08 41.38449 28.85552 7037 ft 258 kts 74°
2026-05-01 10:08 41.38529 28.87985 7842 ft 267 kts 86°
2026-05-01 10:08 41.38430 28.90493 8579 ft 278 kts 98°
2026-05-01 10:09 41.37584 28.92847 9366 ft 289 kts 131°
2026-05-01 10:09 41.35971 28.94411 10244 ft 291 kts 160°
2026-05-01 10:09 41.33936 28.94860 10651 ft 310 kts 181°
2026-05-01 10:09 41.31688 28.94848 10875 ft 336 kts 181°
2026-05-01 10:10 41.29297 28.94848 11434 ft 350 kts 182°
2026-05-01 10:10 41.26835 28.94869 12180 ft 356 kts 182°
2026-05-01 10:10 41.21870 28.94668 13924 ft 360 kts 187°
2026-05-01 10:11 41.19373 28.94404 14610 ft 363 kts 188°
2026-05-01 10:11 41.16849 28.94131 15366 ft 365 kts 187°
2026-05-01 10:11 41.14308 28.93868 16070 ft 367 kts 188°
2026-05-01 10:11 41.11751 28.93616 16782 ft 370 kts 188°
2026-05-01 10:12 41.09168 28.93370 17495 ft 373 kts 188°
2026-05-01 10:12 41.07414 28.93206 17982 ft 375 kts 188°
2026-05-01 10:12 41.01334 28.92637 19539 ft 380 kts 189°
2026-05-01 10:13 40.98692 28.92324 20191 ft 381 kts 190°
2026-05-01 10:13 40.96051 28.91977 20816 ft 382 kts 191°
2026-05-01 10:13 40.93395 28.91629 21419 ft 384 kts 191°
2026-05-01 10:14 40.88043 28.90950 22574 ft 389 kts 190°
2026-05-01 10:14 40.85317 28.90833 23142 ft 396 kts 184°
2026-05-01 10:14 40.82557 28.91037 23768 ft 399 kts 181°
2026-05-01 10:14 40.79779 28.91338 24240 ft 401 kts 181°
2026-05-01 10:15 40.76994 28.91642 24722 ft 402 kts 181°
2026-05-01 10:15 40.74198 28.91920 25174 ft 403 kts 182°
2026-05-01 10:15 40.71396 28.92171 25613 ft 405 kts 182°
2026-05-01 10:15 40.68581 28.92406 26050 ft 406 kts 182°
2026-05-01 10:16 40.65758 28.92633 26469 ft 407 kts 182°
2026-05-01 10:16 40.62925 28.92858 26886 ft 409 kts 182°
2026-05-01 10:16 40.57238 28.93330 27716 ft 412 kts 180°
2026-05-01 10:17 40.54409 28.94215 28022 ft 428 kts 163°
2026-05-01 10:17 40.49258 28.98387 29070 ft 435 kts 153°
2026-05-01 10:17 40.46738 29.00603 29538 ft 437 kts 154°
2026-05-01 10:18 40.41620 29.05036 30115 ft 443 kts 154°
2026-05-01 10:18 40.39032 29.07248 30407 ft 444 kts 154°
2026-05-01 10:18 40.36445 29.09452 30684 ft 444 kts 154°
2026-05-01 10:19 40.33848 29.11659 30964 ft 445 kts 154°
2026-05-01 10:19 40.31245 29.13866 31257 ft 446 kts 154°
2026-05-01 10:19 40.28640 29.16075 31565 ft 446 kts 154°
2026-05-01 10:20 40.23424 29.20492 32140 ft 447 kts 154°
2026-05-01 10:20 40.20805 29.22706 32427 ft 448 kts 154°
2026-05-01 10:20 40.18167 29.24855 32709 ft 444 kts 160°
2026-05-01 10:20 40.15366 29.26402 33013 ft 434 kts 167°
2026-05-01 10:21 40.12514 29.27692 33283 ft 434 kts 168°
2026-05-01 10:21 40.06731 29.30250 33567 ft 441 kts 168°
2026-05-01 10:21 40.03847 29.31580 33976 ft 438 kts 167°
2026-05-01 10:22 39.98104 29.34291 34381 ft 441 kts 167°
2026-05-01 10:22 39.92316 29.37034 34774 ft 443 kts 167°
2026-05-01 10:23 39.89419 29.38433 34926 ft 446 kts 165°
2026-05-01 10:23 39.83649 29.41584 35298 ft 451 kts 163°
2026-05-01 10:23 39.80809 29.43189 35534 ft 451 kts 163°
2026-05-01 10:24 39.74994 29.46431 35898 ft 453 kts 163°
2026-05-01 10:24 39.69221 29.49599 36300 ft 453 kts 164°
2026-05-01 10:25 39.63373 29.52791 36514 ft 459 kts 164°
2026-05-01 10:25 39.57456 29.55808 36951 ft 456 kts 165°
2026-05-01 10:26 39.54486 29.57270 37088 ft 457 kts 165°
2026-05-01 10:26 39.51502 29.58734 37103 ft 460 kts 165°
2026-05-01 10:27 39.40529 29.64177 37092 ft 457 kts 165°
2026-05-01 10:28 39.31675 29.68585 37088 ft 453 kts 165°
2026-05-01 10:28 39.22872 29.72952 37086 ft 452 kts 165°
2026-05-01 10:29 39.13986 29.77342 37091 ft 462 kts 165°
2026-05-01 10:30 39.01898 29.83308 37034 ft 465 kts 165°
2026-05-01 10:31 38.89846 29.89233 37050 ft 462 kts 165°
2026-05-01 10:32 38.80857 29.93540 37049 ft 462 kts 166°
2026-05-01 10:33 38.68776 29.99254 37019 ft 463 kts 166°
2026-05-01 10:34 38.59707 30.03546 37013 ft 464 kts 166°
2026-05-01 10:34 38.53662 30.06401 37003 ft 462 kts 166°
2026-05-01 10:35 38.44622 30.10661 37003 ft 462 kts 166°
2026-05-01 10:35 38.38593 30.13495 36996 ft 462 kts 166°
2026-05-01 10:36 38.29539 30.17706 36990 ft 462 kts 166°
2026-05-01 10:36 38.26611 30.19459 36975 ft 471 kts 154°
2026-05-01 10:37 38.23952 30.21938 36979 ft 479 kts 143°
2026-05-01 10:37 38.19639 30.28523 36997 ft 488 kts 130°
2026-05-01 10:37 38.17666 30.32041 36972 ft 489 kts 129°
2026-05-01 10:38 38.13712 30.39064 36973 ft 488 kts 130°
2026-05-01 10:38 38.09702 30.46013 36978 ft 487 kts 131°
2026-05-01 10:39 38.05663 30.52932 36965 ft 488 kts 131°
2026-05-01 10:39 38.01618 30.59853 36955 ft 489 kts 131°
2026-05-01 10:40 37.97567 30.66778 36962 ft 489 kts 131°
2026-05-01 10:40 37.93536 30.73664 36971 ft 490 kts 131°
2026-05-01 10:41 37.89473 30.80598 36964 ft 489 kts 131°
2026-05-01 10:42 37.83383 30.90970 36992 ft 490 kts 131°
2026-05-01 10:42 37.79305 30.97894 36980 ft 491 kts 131°
2026-05-01 10:43 37.75220 31.04817 36986 ft 492 kts 131°
2026-05-01 10:43 37.71123 31.11744 36977 ft 492 kts 131°
2026-05-01 10:44 37.67019 31.18670 36986 ft 493 kts 131°
2026-05-01 10:44 37.62912 31.25587 36975 ft 492 kts 131°
2026-05-01 10:45 37.58801 31.32496 36967 ft 492 kts 131°
2026-05-01 10:45 37.54703 31.39371 36983 ft 489 kts 131°
2026-05-01 10:46 37.50613 31.46213 36946 ft 488 kts 131°
2026-05-01 10:46 37.46533 31.53028 36974 ft 487 kts 131°
2026-05-01 10:47 37.42450 31.59835 36947 ft 488 kts 131°
2026-05-01 10:47 37.38374 31.66620 36988 ft 486 kts 131°
2026-05-01 10:48 37.34277 31.73407 36984 ft 489 kts 131°
2026-05-01 10:48 37.30151 31.80218 36973 ft 491 kts 131°
2026-05-01 10:49 37.26003 31.87054 36988 ft 493 kts 131°
2026-05-01 10:49 37.21842 31.93902 36983 ft 494 kts 131°
2026-05-01 10:50 37.17672 32.00752 36993 ft 494 kts 131°
2026-05-01 10:50 37.13521 32.07557 36956 ft 494 kts 131°
2026-05-01 10:51 37.09351 32.14379 36977 ft 492 kts 131°
2026-05-01 10:51 37.05166 32.21212 36982 ft 490 kts 131°
2026-05-01 10:52 37.01042 32.27930 36998 ft 489 kts 131°
2026-05-01 10:52 36.96911 32.34648 36992 ft 485 kts 131°
2026-05-01 10:53 36.92796 32.41328 36983 ft 485 kts 131°
2026-05-01 10:53 36.89456 32.48658 36998 ft 491 kts 110°
2026-05-01 10:53 36.88613 32.52798 36958 ft 494 kts 99°
2026-05-01 10:54 36.88361 32.57069 36995 ft 493 kts 92°
2026-05-01 10:54 36.88208 32.65658 36972 ft 495 kts 91°
2026-05-01 10:55 36.88035 32.74271 36953 ft 497 kts 92°
2026-05-01 10:55 36.87794 32.82904 36953 ft 497 kts 92°
2026-05-01 10:56 36.87525 32.91544 36947 ft 498 kts 92°
2026-05-01 10:56 36.87251 33.00176 36953 ft 497 kts 92°
2026-05-01 10:57 36.86976 33.08798 36943 ft 496 kts 93°
2026-05-01 10:57 36.86695 33.17403 36933 ft 496 kts 93°
2026-05-01 10:58 36.86409 33.26003 36942 ft 495 kts 93°
2026-05-01 10:58 36.86408 33.34593 36958 ft 494 kts 86°
2026-05-01 10:59 36.86894 33.43143 36954 ft 493 kts 85°
2026-05-01 10:59 36.87406 33.51677 36962 ft 493 kts 86°
2026-05-01 11:00 36.87851 33.60164 36965 ft 493 kts 86°
2026-05-01 11:00 36.88262 33.68711 36959 ft 493 kts 86°
2026-05-01 11:01 36.88663 33.77245 36966 ft 492 kts 87°
2026-05-01 11:01 36.89059 33.85767 36975 ft 491 kts 87°
2026-05-01 11:02 36.89452 33.94274 36970 ft 490 kts 87°
2026-05-01 11:02 36.89837 34.02774 36975 ft 490 kts 87°
2026-05-01 11:03 36.90216 34.11265 36982 ft 490 kts 87°
2026-05-01 11:03 36.90590 34.19784 36683 ft 494 kts 87°
2026-05-01 11:03 36.90776 34.24058 36405 ft 491 kts 87°
2026-05-01 11:04 36.90958 34.28293 36038 ft 486 kts 87°
2026-05-01 11:04 36.91139 34.32517 35430 ft 486 kts 87°
2026-05-01 11:04 36.91317 34.36734 34812 ft 487 kts 87°
2026-05-01 11:04 36.91495 34.40957 34184 ft 487 kts 87°
2026-05-01 11:05 36.91660 34.45187 33458 ft 487 kts 87°
2026-05-01 11:05 36.91810 34.49401 32937 ft 483 kts 88°
2026-05-01 11:05 36.91952 34.53570 32457 ft 477 kts 88°
2026-05-01 11:05 36.92090 34.57689 32002 ft 472 kts 88°
2026-05-01 11:06 36.92226 34.61773 31528 ft 468 kts 88°
2026-05-01 11:06 36.92362 34.65821 31077 ft 464 kts 88°
2026-05-01 11:06 36.92496 34.69827 30621 ft 460 kts 88°
2026-05-01 11:07 36.92759 34.77758 29659 ft 453 kts 88°
2026-05-01 11:07 36.92887 34.81667 29185 ft 448 kts 88°
2026-05-01 11:07 36.93012 34.85533 28705 ft 443 kts 88°
2026-05-01 11:07 36.93135 34.89360 28246 ft 438 kts 89°
2026-05-01 11:08 36.93255 34.93143 27776 ft 434 kts 89°
2026-05-01 11:08 36.93373 34.96892 27326 ft 430 kts 89°
2026-05-01 11:08 36.93601 35.04293 26427 ft 422 kts 89°
2026-05-01 11:09 36.93712 35.07949 25983 ft 419 kts 89°
2026-05-01 11:09 36.93822 35.11564 25553 ft 416 kts 89°
2026-05-01 11:09 36.93930 35.15170 25121 ft 413 kts 89°
2026-05-01 11:10 36.93388 35.22159 24266 ft 400 kts 116°
2026-05-01 11:10 36.92052 35.25151 23859 ft 392 kts 126°
2026-05-01 11:10 36.90545 35.27977 23408 ft 390 kts 127°
2026-05-01 11:10 36.89023 35.30774 22918 ft 388 kts 127°
2026-05-01 11:11 36.87517 35.33549 22466 ft 385 kts 127°
2026-05-01 11:11 36.86030 35.36309 22029 ft 381 kts 127°
2026-05-01 11:11 36.84564 35.39052 21622 ft 378 kts 127°
2026-05-01 11:11 36.83116 35.41772 21200 ft 375 kts 127°
2026-05-01 11:12 36.81700 35.44438 20791 ft 372 kts 127°
2026-05-01 11:12 36.80259 35.47152 20377 ft 369 kts 127°
2026-05-01 11:12 36.78847 35.49811 19972 ft 366 kts 127°
2026-05-01 11:12 36.77445 35.52448 19559 ft 364 kts 127°
2026-05-01 11:13 36.76069 35.55036 19163 ft 362 kts 127°
2026-05-01 11:13 36.74683 35.57640 18775 ft 359 kts 127°
2026-05-01 11:13 36.73303 35.60230 18379 ft 358 kts 127°
2026-05-01 11:13 36.71931 35.62802 17947 ft 356 kts 127°
2026-05-01 11:14 36.70565 35.65362 17507 ft 353 kts 127°
2026-05-01 11:14 36.69209 35.67901 17086 ft 351 kts 127°
2026-05-01 11:14 36.67862 35.70423 16690 ft 348 kts 127°
2026-05-01 11:14 36.66957 35.72116 16419 ft 346 kts 127°
2026-05-01 11:15 36.65627 35.74604 16023 ft 344 kts 127°
2026-05-01 11:15 36.64306 35.77072 15630 ft 341 kts 126°
2026-05-01 11:15 36.63013 35.79487 15248 ft 339 kts 126°
2026-05-01 11:15 36.61708 35.81922 14869 ft 337 kts 126°
2026-05-01 11:16 36.60412 35.84340 14485 ft 335 kts 126°
2026-05-01 11:16 36.59123 35.86744 14106 ft 333 kts 126°
2026-05-01 11:16 36.57839 35.89136 13720 ft 332 kts 126°
2026-05-01 11:16 36.56562 35.91513 13299 ft 330 kts 126°
2026-05-01 11:17 36.55290 35.93879 12890 ft 328 kts 126°
2026-05-01 11:17 36.54010 35.96260 12498 ft 325 kts 127°
2026-05-01 11:17 36.52773 35.98557 12112 ft 323 kts 127°
2026-05-01 11:17 36.51526 36.00872 11937 ft 323 kts 127°
2026-05-01 11:18 36.50281 36.03182 11900 ft 318 kts 127°
2026-05-01 11:18 36.49073 36.05425 11880 ft 305 kts 127°
2026-05-01 11:18 36.47919 36.07568 11869 ft 291 kts 127°
2026-05-01 11:18 36.46817 36.09609 11869 ft 277 kts 127°
2026-05-01 11:19 36.45764 36.11558 11821 ft 267 kts 127°
2026-05-01 11:19 36.44741 36.13448 11619 ft 261 kts 128°
2026-05-01 11:19 36.43715 36.15336 11011 ft 268 kts 128°
2026-05-01 11:19 36.42655 36.17289 10289 ft 278 kts 128°
2026-05-01 11:20 36.41563 36.19304 9806 ft 279 kts 128°
2026-05-01 11:20 36.40504 36.21264 9555 ft 269 kts 128°
2026-05-01 11:20 36.39475 36.23162 9277 ft 261 kts 128°
2026-05-01 11:20 36.38480 36.24997 9081 ft 250 kts 128°
2026-05-01 11:21 36.37599 36.26777 9055 ft 240 kts 115°
2026-05-01 11:21 36.37468 36.28825 9051 ft 241 kts 77°
2026-05-01 11:21 36.38309 36.30533 9057 ft 231 kts 41°
2026-05-01 11:21 36.39620 36.31653 8958 ft 230 kts 32°
2026-05-01 11:22 36.40967 36.32672 8700 ft 222 kts 31°
2026-05-01 11:22 36.42255 36.33636 8462 ft 211 kts 31°
2026-05-01 11:22 36.43485 36.34561 8285 ft 202 kts 31°
2026-05-01 11:22 36.44686 36.35468 8105 ft 203 kts 32°
2026-05-01 11:23 36.45895 36.36386 7915 ft 205 kts 32°
2026-05-01 11:23 36.47115 36.37315 7724 ft 207 kts 32°
2026-05-01 11:23 36.48346 36.38256 7524 ft 209 kts 32°
2026-05-01 11:23 36.49579 36.39200 7312 ft 206 kts 32°
2026-05-01 11:24 36.50787 36.40125 7101 ft 202 kts 32°
2026-05-01 11:24 36.51968 36.41031 6890 ft 198 kts 32°
2026-05-01 11:24 36.54313 36.42833 6529 ft 200 kts 32°
2026-05-01 11:25 36.55499 36.43745 6329 ft 200 kts 32°
2026-05-01 11:25 36.57003 36.46237 5868 ft 182 kts 104°
2026-05-01 11:25 36.56406 36.47576 5707 ft 181 kts 143°
2026-05-01 11:26 36.55257 36.48105 5497 ft 179 kts 184°
2026-05-01 11:26 36.53200 36.46520 5026 ft 181 kts 219°
2026-05-01 11:26 36.52232 36.45542 4766 ft 181 kts 219°
2026-05-01 11:27 36.51262 36.44551 4460 ft 180 kts 219°
2026-05-01 11:27 36.50295 36.43557 4191 ft 176 kts 220°
2026-05-01 11:27 36.49371 36.42602 3920 ft 173 kts 221°
2026-05-01 11:27 36.48465 36.41652 3677 ft 168 kts 222°
2026-05-01 11:28 36.47571 36.40699 3428 ft 162 kts 221°
2026-05-01 11:28 36.46747 36.39824 3177 ft 152 kts 223°
2026-05-01 11:28 36.45952 36.38974 2939 ft 154 kts 222°
2026-05-01 11:29 36.44353 36.37270 2461 ft 148 kts 223°
2026-05-01 11:29 36.43575 36.36440 2232 ft 148 kts 221°
2026-05-01 11:29 36.42012 36.34771 1783 ft 148 kts 223°
2026-05-01 11:30 36.41223 36.33974 1512 ft 148 kts 218°
2026-05-01 11:30 36.40363 36.33250 1276 ft 151 kts 214°
2026-05-01 11:30 36.39521 36.32504 1083 ft 147 kts 222°
2026-05-01 11:30 36.38765 36.31641 785 ft 150 kts 224°
2026-05-01 11:31 36.38002 36.30761 534 ft 148 kts 221°
2026-05-01 11:31 36.37251 36.29908 320 ft 145 kts 222°
2026-05-01 11:31 36.36541 36.29098 271 ft 124 kts 223°
2026-05-01 11:31 36.36063 36.28550 268 ft 63 kts 223°
2026-05-01 11:32 36.35941 36.28397 268 ft 10 kts 257°
2026-05-01 11:32 36.35973 36.28328 269 ft 10 kts 311°
2026-05-01 11:32 36.36017 36.28267 268 ft 9 kts 313°
2026-05-01 11:32 36.36060 36.28209 268 ft 9 kts 313°
2026-05-01 11:33 36.36110 36.28170 268 ft 9 kts
2026-05-01 11:33 36.36156 36.28212 268 ft 8 kts 44°
2026-05-01 11:33 36.36188 36.28251 268 ft 4 kts 44°
2026-05-01 11:33 36.36210 36.28254 268 ft 3 kts 329°
2026-05-01 11:34 36.36226 36.28235 268 ft 3 kts 313°
2026-05-01 11:34 36.36237 36.28220 268 ft 2 kts 314°
2026-05-01 11:34 36.36242 36.28213 268 ft 0 kts 313°